Find Starlink 35416

NORAD ID: 66248 Int'l Des: 2025-245 Owner: SPXS Country: US Constellation: starlink operational
LEOCIRCULAR

現在のビュー

3D地球を読み込み中...

Starlink 35416について

説明を読み込み中...

次回通過

Passes for default location (London). Set your location on the main map for personalized predictions.

高度履歴

Loading altitude history...

軌道要素

1 66248U 25245Q 26145.65159836 .00022680 00000-0 74040-3 0 9991
2 66248 53.1623 286.1348 0000435 99.5304 260.5747 15.31699856 32988
Epoch: May 25, 2026 • Age: 27 hours

現在のステータス

高度 471.8 km
速度 7.63 km/s
衛星直下点 -1.77°S, 121.57°E
打ち上げ日 Oct 29, 2025
運用期間 0.5 years
タイプ internet

技術仕様

分類 Payload
質量 575.00 kg
乾燥質量 530.00 kg
総質量 575.00 kg
長さ 0.30 m
直径 4.10 m
スパン 29.00 m
形状 Box + pan
製造者 SPXS
バスタイプ Starlink V2MO
フェーズステータス In Orbit
所有者/国 SPXS/US

Most Searched